Time,TemperatureF,DewpointF,PressureIn,WindDirection,WindDirectionDegrees,WindSpeedMPH,WindSpeedGustMPH,Humidity,HourlyPrecipIn,Conditions,Clouds,dailyrainin,SoftwareType,DateUTC
2014-11-28 00:00:00,39.2,36.5,30.04,East,82,10.4,10.4,90,0.00,,FEW,0.00,WeatherDisplay:10.37,2014-11-27 23:00:00,
2014-11-28 00:05:00,39.2,36.5,30.04,East,85,6.0,13.0,90,0.00,,FEW,0.00,WeatherDisplay:10.37,2014-11-27 23:05:00,
2014-11-28 00:10:00,39.3,36.3,30.04,East,84,11.5,11.5,89,0.00,,FEW,0.00,WeatherDisplay:10.37,2014-11-27 23:10:00,
2014-11-28 00:15:00,39.3,36.0,30.04,East,88,11.5,11.5,88,0.00,,FEW,0.00,WeatherDisplay:10.37,2014-11-27 23:15:00,
2014-11-28 00:20:00,39.3,36.0,30.05,East,87,5.0,13.0,88,0.00,,FEW,0.00,WeatherDisplay:10.37,2014-11-27 23:20:00,
2014-11-28 00:25:00,39.3,35.8,30.05,East,88,7.0,13.0,87,0.00,,FEW,0.00,WeatherDisplay:10.37,2014-11-27 23:25:00,
2014-11-28 00:30:00,39.5,36.0,30.05,East,84,12.7,12.7,87,0.00,,FEW,0.00,WeatherDisplay:10.37,2014-11-27 23:30:00,
2014-11-28 00:35:00,39.6,36.1,30.05,East,90,8.0,16.0,87,0.00,,FEW,0.00,WeatherDisplay:10.37,2014-11-27 23:35:00,
2014-11-28 00:40:00,39.9,36.1,30.05,East,82,11.0,11.0,86,0.00,,FEW,0.00,WeatherDisplay:10.37,2014-11-27 23:40:00,
2014-11-28 00:45:00,39.9,36.1,30.05,East,91,6.0,14.0,86,0.00,,FEW,0.00,WeatherDisplay:10.37,2014-11-27 23:45:00,
2014-11-28 00:50:00,40.1,36.2,30.05,East,101,10.4,10.4,86,0.00,,FEW,0.00,WeatherDisplay:10.37,2014-11-27 23:50:00,
2014-11-28 00:55:00,40.1,36.0,30.05,ESE,104,11.5,11.5,85,0.00,,FEW,0.00,WeatherDisplay:10.37,2014-11-27 23:55:00,
2014-11-28 01:00:00,40.2,35.8,30.05,ESE,103,9.0,9.0,84,0.00,,FEW,0.00,WeatherDisplay:10.37,2014-11-28 00:00:00,
2014-11-28 01:05:00,40.3,35.8,30.05,ESE,103,8.0,12.0,84,0.00,,FEW,0.00,WeatherDisplay:10.37,2014-11-28 00:05:00,
2014-11-28 01:10:00,40.5,35.7,30.05,East,98,9.2,9.2,83,0.00,,FEW,0.00,WeatherDisplay:10.37,2014-11-28 00:10:00,
2014-11-28 01:15:00,40.7,35.6,30.05,East,100,5.0,12.0,82,0.00,,FEW,0.00,WeatherDisplay:10.37,2014-11-28 00:15:00,
2014-11-28 01:20:00,40.9,35.8,30.05,East,95,10.4,10.4,82,0.00,,FEW,0.00,WeatherDisplay:10.37,2014-11-28 00:20:00,
2014-11-28 01:25:00,41.1,36.0,30.05,East,101,9.2,9.2,82,0.00,,FEW,0.00,WeatherDisplay:10.37,2014-11-28 00:25:00,
2014-11-28 01:30:00,41.2,35.8,30.05,East,100,6.9,6.9,81,0.00,,FEW,0.00,WeatherDisplay:10.37,2014-11-28 00:30:00,
2014-11-28 01:35:00,40.8,35.2,30.05,East,99,7.0,12.0,80,0.00,,FEW,0.00,WeatherDisplay:10.37,2014-11-28 00:35:00,
2014-11-28 01:40:00,40.1,35.0,30.05,East,95,10.4,10.4,82,0.00,,FEW,0.00,WeatherDisplay:10.37,2014-11-28 00:40:00,
2014-11-28 01:45:00,39.6,34.5,30.05,East,95,5.0,12.0,82,0.00,,FEW,0.00,WeatherDisplay:10.37,2014-11-28 00:45:00,
2014-11-28 01:50:00,39.2,34.8,30.05,East,93,9.2,9.2,84,0.00,,FEW,0.00,WeatherDisplay:10.37,2014-11-28 00:50:00,
2014-11-28 01:55:00,39.1,35.3,30.05,East,92,6.0,12.0,86,0.00,,FEW,0.00,WeatherDisplay:10.37,2014-11-28 00:55:00,
2014-11-28 02:00:00,39.1,35.6,30.05,East,90,11.0,11.0,87,0.00,,FEW,0.00,WeatherDisplay:10.37,2014-11-28 01:00:00,
2014-11-28 02:05:00,39.3,36.0,30.05,East,92,10.4,10.4,88,0.00,,FEW,0.00,WeatherDisplay:10.37,2014-11-28 01:05:00,
2014-11-28 02:10:00,39.5,36.2,30.05,East,94,11.5,11.5,88,0.00,,FEW,0.00,WeatherDisplay:10.37,2014-11-28 01:10:00,
2014-11-28 02:15:00,39.9,36.3,30.05,East,95,7.0,12.0,87,0.00,,FEW,0.00,WeatherDisplay:10.37,2014-11-28 01:15:00,
2014-11-28 02:20:00,40.5,36.9,30.05,ESE,105,11.5,11.5,87,0.00,,FEW,0.00,WeatherDisplay:10.37,2014-11-28 01:20:00,
2014-11-28 02:25:00,40.8,36.9,30.05,ESE,105,8.0,16.0,86,0.00,,FEW,0.00,WeatherDisplay:10.37,2014-11-28 01:25:00,
2014-11-28 02:30:00,40.9,36.4,30.05,SE,133,12.0,12.0,84,0.00,,FEW,0.00,WeatherDisplay:10.37,2014-11-28 01:30:00,
2014-11-28 02:35:00,41.1,36.3,30.05,ESE,115,12.7,12.7,83,0.00,,FEW,0.00,WeatherDisplay:10.37,2014-11-28 01:35:00,
2014-11-28 02:40:00,40.9,35.8,30.05,ESE,109,13.0,13.0,82,0.00,,FEW,0.00,WeatherDisplay:10.37,2014-11-28 01:40:00,
2014-11-28 02:45:00,41.1,35.7,30.05,ESE,116,9.0,16.0,81,0.00,,FEW,0.00,WeatherDisplay:10.37,2014-11-28 01:45:00,
2014-11-28 02:50:00,41.2,35.8,30.05,ESE,111,10.4,10.4,81,0.00,,FEW,0.00,WeatherDisplay:10.37,2014-11-28 01:50:00,
2014-11-28 02:55:00,41.2,35.8,30.05,ESE,117,8.0,20.0,81,0.00,,FEW,0.00,WeatherDisplay:10.37,2014-11-28 01:55:00,
2014-11-28 03:00:00,41.3,35.9,30.05,ESE,111,11.5,11.5,81,0.00,,FEW,0.00,WeatherDisplay:10.37,2014-11-28 02:00:00,
2014-11-28 03:05:00,41.2,35.8,30.06,ESE,114,7.0,12.0,81,0.00,,FEW,0.00,WeatherDisplay:10.37,2014-11-28 02:05:00,
2014-11-28 03:10:00,41.2,36.1,30.06,ESE,111,6.0,19.0,82,0.00,,FEW,0.00,WeatherDisplay:10.37,2014-11-28 02:10:00,
2014-11-28 03:15:00,41.2,36.4,30.06,ESE,110,13.8,13.8,83,0.00,,FEW,0.00,WeatherDisplay:10.37,2014-11-28 02:15:00,
2014-11-28 03:20:00,41.3,36.5,30.06,ESE,107,9.2,9.2,83,0.00,,FEW,0.00,WeatherDisplay:10.37,2014-11-28 02:20:00,
2014-11-28 03:25:00,41.5,37.0,30.06,ESE,103,10.4,10.4,84,0.00,,FEW,0.00,WeatherDisplay:10.37,2014-11-28 02:25:00,
2014-11-28 03:30:00,41.6,36.8,30.06,ESE,107,11.5,11.5,83,0.00,,FEW,0.00,WeatherDisplay:10.37,2014-11-28 02:30:00,
2014-11-28 03:35:00,41.8,37.0,30.06,ESE,109,11.5,11.5,83,0.00,,FEW,0.00,WeatherDisplay:10.37,2014-11-28 02:35:00,
2014-11-28 03:40:00,41.9,36.8,30.06,ESE,107,11.5,11.5,82,0.00,,FEW,0.00,WeatherDisplay:10.37,2014-11-28 02:40:00,
2014-11-28 03:45:00,41.6,36.5,30.06,ESE,107,6.9,6.9,82,0.00,,FEW,0.00,WeatherDisplay:10.37,2014-11-28 02:45:00,
2014-11-28 03:50:00,41.1,36.0,30.06,ESE,106,6.9,6.9,82,0.00,,FEW,0.00,WeatherDisplay:10.37,2014-11-28 02:50:00,
2014-11-28 03:55:00,40.5,35.4,30.06,ESE,106,8.1,8.1,82,0.00,,FEW,0.00,WeatherDisplay:10.37,2014-11-28 02:55:00,
2014-11-28 04:00:00,40.1,35.7,30.06,ESE,106,5.8,5.8,84,0.00,,FEW,0.00,WeatherDisplay:10.37,2014-11-28 03:00:00,
2014-11-28 04:05:00,39.9,35.8,30.06,ESE,103,10.4,10.4,85,0.00,,FEW,0.00,WeatherDisplay:10.37,2014-11-28 03:05:00,
2014-11-28 04:10:00,40.1,36.2,30.06,ESE,103,6.9,6.9,86,0.00,,FEW,0.00,WeatherDisplay:10.37,2014-11-28 03:10:00,
2014-11-28 04:15:00,39.9,36.1,30.06,East,88,9.2,9.2,86,0.00,,FEW,0.00,WeatherDisplay:10.37,2014-11-28 03:15:00,
2014-11-28 04:20:00,39.8,36.2,30.06,East,86,11.5,11.5,87,0.00,,FEW,0.00,WeatherDisplay:10.37,2014-11-28 03:20:00,
2014-11-28 04:25:00,39.8,36.2,30.06,East,86,10.4,10.4,87,0.00,,FEW,0.00,WeatherDisplay:10.37,2014-11-28 03:25:00,
2014-11-28 04:30:00,39.8,36.5,30.06,East,85,11.5,11.5,88,0.00,,FEW,0.00,WeatherDisplay:10.37,2014-11-28 03:30:00,
2014-11-28 04:35:00,39.8,36.5,30.06,East,82,11.5,11.5,88,0.00,,FEW,0.00,WeatherDisplay:10.37,2014-11-28 03:35:00,
2014-11-28 04:40:00,39.9,36.6,30.06,East,82,10.4,10.4,88,0.00,,FEW,0.00,WeatherDisplay:10.37,2014-11-28 03:40:00,
2014-11-28 04:45:00,40.1,36.8,30.06,ENE,75,13.8,13.8,88,0.00,,FEW,0.00,WeatherDisplay:10.37,2014-11-28 03:45:00,
2014-11-28 04:50:00,40.2,36.9,30.06,ENE,74,13.8,13.8,88,0.00,,FEW,0.00,WeatherDisplay:10.37,2014-11-28 03:50:00,
2014-11-28 04:55:00,40.5,36.9,30.06,ENE,78,12.7,12.7,87,0.00,,FEW,0.00,WeatherDisplay:10.37,2014-11-28 03:55:00,
2014-11-28 05:00:00,40.6,37.0,30.06,ENE,76,11.5,11.5,87,0.00,,FEW,0.00,WeatherDisplay:10.37,2014-11-28 04:00:00,
2014-11-28 05:05:00,40.6,37.0,30.06,ENE,77,11.5,11.5,87,0.00,,FEW,0.00,WeatherDisplay:10.37,2014-11-28 04:05:00,
2014-11-28 05:10:00,40.8,37.2,30.06,East,82,13.8,13.8,87,0.00,,FEW,0.00,WeatherDisplay:10.37,2014-11-28 04:10:00,
2014-11-28 05:15:00,40.9,37.0,30.06,East,88,11.5,11.5,86,0.00,,FEW,0.00,WeatherDisplay:10.37,2014-11-28 04:15:00,
2014-11-28 05:20:00,40.9,37.0,30.07,East,84,10.4,10.4,86,0.00,,FEW,0.00,WeatherDisplay:10.37,2014-11-28 04:20:00,
2014-11-28 05:25:00,40.9,37.0,30.07,East,84,18.4,18.4,86,0.00,,FEW,0.00,WeatherDisplay:10.37,2014-11-28 04:25:00,
2014-11-28 05:30:00,40.9,37.0,30.07,East,98,11.5,11.5,86,0.00,,FEW,0.00,WeatherDisplay:10.37,2014-11-28 04:30:00,
2014-11-28 05:35:00,40.9,36.7,30.07,ESE,103,16.1,16.1,85,0.00,,FEW,0.00,WeatherDisplay:10.37,2014-11-28 04:35:00,
2014-11-28 05:40:00,40.9,36.7,30.07,ESE,112,16.1,16.1,85,0.00,,FEW,0.00,WeatherDisplay:10.37,2014-11-28 04:40:00,
2014-11-28 05:45:00,40.9,36.4,30.07,ESE,102,13.0,13.0,84,0.00,,FEW,0.00,WeatherDisplay:10.37,2014-11-28 04:45:00,
2014-11-28 05:50:00,40.9,36.4,30.08,East,93,11.5,11.5,84,0.00,,FEW,0.00,WeatherDisplay:10.37,2014-11-28 04:50:00,
2014-11-28 05:55:00,40.9,36.4,30.08,East,100,11.0,11.0,84,0.00,,FEW,0.00,WeatherDisplay:10.37,2014-11-28 04:55:00,
2014-11-28 06:00:00,41.1,36.3,30.08,East,100,9.2,9.2,83,0.00,,FEW,0.00,WeatherDisplay:10.37,2014-11-28 05:00:00,
2014-11-28 06:05:00,41.1,36.3,30.08,East,101,9.0,9.0,83,0.00,,FEW,0.00,WeatherDisplay:10.37,2014-11-28 05:05:00,
2014-11-28 06:10:00,41.2,36.1,30.08,ESE,115,13.8,13.8,82,0.00,,FEW,0.00,WeatherDisplay:10.37,2014-11-28 05:10:00,
2014-11-28 06:15:00,41.6,36.2,30.08,ESE,109,18.4,18.4,81,0.00,,FEW,0.00,WeatherDisplay:10.37,2014-11-28 05:15:00,
2014-11-28 06:20:00,41.8,36.1,30.08,ESE,103,9.2,9.2,80,0.00,,FEW,0.00,WeatherDisplay:10.37,2014-11-28 05:20:00,
2014-11-28 06:25:00,41.8,36.4,30.08,ESE,106,9.2,9.2,81,0.00,,FEW,0.00,WeatherDisplay:10.37,2014-11-28 05:25:00,
2014-11-28 06:30:00,41.8,36.4,30.08,East,97,11.5,11.5,81,0.00,,FEW,0.00,WeatherDisplay:10.37,2014-11-28 05:30:00,
2014-11-28 06:35:00,41.5,35.8,30.09,East,82,11.5,11.5,80,0.00,,FEW,0.00,WeatherDisplay:10.37,2014-11-28 05:35:00,
2014-11-28 06:40:00,41.3,35.6,30.09,East,94,13.8,13.8,80,0.00,,FEW,0.00,WeatherDisplay:10.37,2014-11-28 05:40:00,
2014-11-28 06:45:00,41.3,35.6,30.09,East,81,11.5,11.5,80,0.00,,FEW,0.00,WeatherDisplay:10.37,2014-11-28 05:45:00,
2014-11-28 06:50:00,41.3,35.6,30.09,East,92,17.3,17.3,80,0.00,,FEW,0.00,WeatherDisplay:10.37,2014-11-28 05:50:00,
2014-11-28 06:55:00,41.2,35.8,30.09,ESE,105,15.0,15.0,81,0.00,,FEW,0.00,WeatherDisplay:10.37,2014-11-28 05:55:00,
2014-11-28 07:00:00,41.1,35.7,30.09,East,86,16.1,16.1,81,0.00,,FEW,0.00,WeatherDisplay:10.37,2014-11-28 06:00:00,
2014-11-28 07:05:00,40.8,35.4,30.10,East,90,16.1,16.1,81,0.00,,FEW,0.00,WeatherDisplay:10.37,2014-11-28 06:05:00,
2014-11-28 07:10:00,40.6,35.5,30.10,East,92,17.3,17.3,82,0.00,,FEW,0.00,WeatherDisplay:10.37,2014-11-28 06:10:00,
2014-11-28 07:15:00,40.5,35.4,30.10,East,92,18.4,18.4,82,0.00,,FEW,0.00,WeatherDisplay:10.37,2014-11-28 06:15:00,
2014-11-28 07:20:00,40.5,35.4,30.10,East,101,17.0,17.0,82,0.00,,FEW,0.00,WeatherDisplay:10.37,2014-11-28 06:20:00,
2014-11-28 07:25:00,40.5,35.1,30.10,East,90,19.6,19.6,81,0.00,,FEW,0.00,WeatherDisplay:10.37,2014-11-28 06:25:00,
2014-11-28 07:31:00,40.5,35.1,30.10,East,85,17.3,17.3,81,0.00,,FEW,0.00,WeatherDisplay:10.37,2014-11-28 06:31:00,
2014-11-28 07:36:00,40.5,34.8,30.11,East,86,19.6,19.6,80,0.00,,FEW,0.00,WeatherDisplay:10.37,2014-11-28 06:36:00,
2014-11-28 07:41:00,40.6,34.9,30.11,East,85,23.0,23.0,80,0.00,,FEW,0.00,WeatherDisplay:10.37,2014-11-28 06:41:00,
2014-11-28 07:46:00,40.6,34.6,30.11,ESE,105,17.3,17.3,79,0.00,,FEW,0.00,WeatherDisplay:10.37,2014-11-28 06:46:00,
2014-11-28 07:51:00,40.8,34.5,30.11,East,94,11.5,11.5,78,0.00,,FEW,0.00,WeatherDisplay:10.37,2014-11-28 06:51:00,
2014-11-28 07:56:00,40.8,34.1,30.11,East,94,13.8,13.8,77,0.00,,FEW,0.00,WeatherDisplay:10.37,2014-11-28 06:56:00,
2014-11-28 08:01:00,40.8,33.8,30.11,East,94,18.0,18.0,76,0.00,,FEW,0.00,WeatherDisplay:10.37,2014-11-28 07:01:00,
2014-11-28 08:06:00,40.9,33.6,30.11,East,90,11.5,11.5,75,0.00,CLR,FEW,0.00,WeatherDisplay:10.37,2014-11-28 07:06:00,
2014-11-28 08:11:00,40.8,33.2,30.11,East,96,11.5,11.5,74,0.00,CLR,FEW,0.00,WeatherDisplay:10.37,2014-11-28 07:11:00,
2014-11-28 08:16:00,40.6,32.6,30.11,East,87,23.0,23.0,73,0.00,CLR,FEW,0.00,WeatherDisplay:10.37,2014-11-28 07:16:00,
2014-11-28 08:21:00,40.8,32.1,30.11,ESE,117,15.0,15.0,71,0.00,CLR,FEW,0.00,WeatherDisplay:10.37,2014-11-28 07:21:00,